| time (UTC) | temp F | wind direction | speed knots | gust knots | rain 1hr in | rain 24hr in | rain mn in | humidity % | barometer mb |
| 20260508084504 | 45 | 280 | 1.7 | 7.0 | 0.00 | 0.00 | 0.00 | 84 | 1010.7 |
| 20260508083003 | 45 | 240 | 0.9 | 7.8 | 0.00 | 0.00 | 0.00 | 85 | 1010.7 |
| 20260508081504 | 45 | 246 | 1.7 | 6.1 | 0.00 | 0.00 | 0.00 | 84 | 1010.6 |
| 20260508080112 | 46 | 254 | 0.9 | 7.8 | 0.00 | 0.00 | 0.00 | 84 | 1010.7 |
| 20260508074604 | 46 | 271 | 1.7 | 7.8 | 0.00 | 0.00 | 0.00 | 83 | 1010.9 |
| 20260508073058 | 46 | 257 | 3.5 | 8.7 | 0.00 | 0.00 | 0.00 | 82 | 1010.8 |
| 20260508071552 | 47 | 241 | 2.6 | 8.7 | 0.00 | 0.00 | 0.00 | 80 | 1010.9 |
| 20260508070052 | 48 | 273 | 6.1 | 14.8 | 0.00 | 0.00 | 0.00 | 76 | 1011.0 |
| 20260508064555 | 48 | 238 | 4.3 | 12.2 | 0.00 | 0.00 | 0.00 | 74 | 1010.9 |
| 20260508063048 | 47 | 277 | 2.6 | 6.1 | 0.00 | 0.00 | 0.00 | 74 | 1011.0 |
| 20260508061545 | 47 | 254 | 1.7 | 4.3 | 0.00 | 0.00 | 0.00 | 75 | 1011.1 |
| 20260508060042 | 47 | 269 | 0.9 | 3.5 | 0.00 | 0.00 | 0.00 | 76 | 1011.1 |
| 20260508054546 | 47 | 261 | 0.0 | 2.6 | 0.00 | 0.00 | 0.00 | 76 | 1011.1 |
| 20260508053041 | 47 | 250 | 0.0 | 2.6 | 0.00 | 0.00 | 0.00 | 75 | 1011.4 |
| 20260508051539 | 47 | 254 | 0.9 | 2.6 | 0.00 | 0.00 | 0.00 | 74 | 1011.6 |
| 20260508050049 | 48 | 259 | 0.0 | 3.5 | 0.00 | 0.00 | 0.00 | 74 | 1011.5 |
| 20260508044533 | 48 | 262 | 0.9 | 5.2 | 0.00 | 0.00 | 0.00 | 74 | 1011.6 |
| 20260508043031 | 48 | 263 | 0.9 | 5.2 | 0.00 | 0.00 | 0.00 | 73 | 1011.5 |
| 20260508041529 | 48 | 282 | 1.7 | 6.1 | 0.00 | 0.00 | 0.00 | 73 | 1011.6 |
| 20260508040041 | 47 | 260 | 1.7 | 5.2 | 0.00 | 0.00 | 0.00 | 73 | 1011.6 |
| 20260508034537 | 47 | 272 | 1.7 | 6.1 | 0.00 | 0.00 | 0.00 | 72 | 1011.7 |
| 20260508033025 | 47 | 266 | 0.9 | 6.1 | 0.00 | 0.00 | 0.00 | 73 | 1011.8 |
| 20260508031524 | 45 | 225 | 0.9 | 3.5 | 0.00 | 0.00 | 0.00 | 76 | 1011.7 |
| 20260508030025 | 43 | 299 | 0.0 | 0.0 | 0.00 | 0.00 | 0.00 | 81 | 1011.8 |
| 20260508024526 | 43 | 299 | 0.0 | 0.0 | 0.00 | 0.00 | 0.00 | 81 | 1011.8 |
| 20260508023024 | 43 | 299 | 0.0 | 0.0 | 0.00 | 0.00 | 0.00 | 79 | 1011.7 |
| 20260508021523 | 44 | 299 | 0.0 | 0.0 | 0.00 | 0.00 | 0.00 | 78 | 1011.5 |
| 20260508020023 | 44 | 299 | 0.0 | 0.0 | 0.00 | 0.00 | 0.00 | 77 | 1011.5 |
| 20260508014522 | 44 | 299 | 0.0 | 0.0 | 0.00 | 0.00 | 0.00 | 74 | 1011.3 |
| 20260508013021 | 45 | 299 | 0.0 | 0.0 | 0.00 | 0.00 | 0.00 | 72 | 1011.4 |
| 20260508011522 | 46 | 299 | 0.0 | 0.0 | 0.00 | 0.00 | 0.00 | 68 | 1011.2 |
| 20260508010021 | 48 | 299 | 0.0 | 0.0 | 0.00 | 0.00 | 0.00 | 63 | 1011.1 |
| 20260508004521 | 50 | 299 | 0.0 | 0.0 | 0.00 | 0.00 | 0.00 | 59 | 1011.1 |
| 20260508003020 | 51 | 299 | 0.0 | 1.7 | 0.00 | 0.00 | 0.00 | 59 | 1011.1 |
| 20260508001620 | 51 | 328 | 2.6 | 7.0 | 0.00 | 0.00 | 0.00 | 52 | 1010.9 |
| 20260508000018 | 52 | 315 | 3.5 | 7.8 | 0.00 | 0.00 | 0.00 | 52 | 1010.8 |
| 20260507234530 | 53 | 284 | 2.6 | 9.6 | 0.00 | 0.00 | 0.00 | 52 | 1010.7 |
| 20260507233022 | 53 | 309 | 1.7 | 9.6 | 0.00 | 0.00 | 0.00 | 51 | 1010.7 |
| 20260507231517 | 53 | 277 | 4.3 | 12.2 | 0.00 | 0.00 | 0.00 | 50 | 1010.6 |
| 20260507230018 | 54 | 313 | 3.5 | 11.3 | 0.00 | 0.00 | 0.00 | 49 | 1010.8 |
| 20260507224515 | 54 | 305 | 6.1 | 13.9 | 0.00 | 0.00 | 0.00 | 49 | 1010.8 |
| 20260507223015 | 55 | 274 | 4.3 | 11.3 | 0.00 | 0.00 | 0.00 | 49 | 1010.7 |
| 20260507221513 | 54 | 330 | 6.1 | 12.2 | 0.00 | 0.00 | 0.00 | 49 | 1010.8 |
| 20260507220013 | 54 | 294 | 2.6 | 10.4 | 0.00 | 0.00 | 0.00 | 52 | 1010.7 |
| 20260507214512 | 53 | 286 | 2.6 | 12.2 | 0.00 | 0.00 | 0.00 | 56 | 1010.6 |
| 20260507213020 | 53 | 347 | 3.5 | 15.6 | 0.00 | 0.00 | 0.00 | 57 | 1010.5 |
| 20260507211511 | 53 | 311 | 3.5 | 11.3 | 0.00 | 0.00 | 0.00 | 58 | 1010.5 |
| 20260507210011 | 53 | 331 | 7.0 | 13.0 | 0.00 | 0.00 | 0.00 | 61 | 1010.3 |
| 20260507204510 | 53 | 276 | 5.2 | 9.6 | 0.00 | 0.00 | 0.00 | 61 | 1010.2 |
| 20260507203009 | 53 | 224 | 5.2 | 13.0 | 0.00 | 0.00 | 0.00 | 57 | 1010.0 |
| 20260507201508 | 54 | 290 | 5.2 | 12.2 | 0.00 | 0.00 | 0.00 | 54 | 1010.0 |
| 20260507200010 | 53 | 246 | 5.2 | 13.0 | 0.00 | 0.00 | 0.00 | 57 | 1009.9 |
| 20260507194521 | 54 | 253 | 4.3 | 13.9 | 0.00 | 0.00 | 0.00 | 52 | 1010.0 |
| 20260507193007 | 54 | 315 | 4.3 | 10.4 | 0.00 | 0.00 | 0.00 | 55 | 1010.2 |
| 20260507191504 | 54 | 319 | 5.2 | 10.4 | 0.00 | 0.00 | 0.00 | 53 | 1010.2 |
| 20260507190116 | 54 | 309 | 1.7 | 9.6 | 0.00 | 0.00 | 0.00 | 57 | 1010.2 |
| 20260507184502 | 54 | 264 | 4.3 | 11.3 | 0.00 | 0.00 | 0.00 | 54 | 1010.4 |
| 20260507183116 | 54 | 288 | 3.5 | 9.6 | 0.00 | 0.00 | 0.00 | 56 | 1010.4 |
| 20260507181601 | 55 | 284 | 4.3 | 13.0 | 0.00 | 0.00 | 0.00 | 55 | 1010.5 |
| 20260507180104 | 53 | 261 | 6.1 | 13.0 | 0.00 | 0.00 | 0.00 | 58 | 1010.5 |
| 20260507174603 | 53 | 243 | 4.3 | 9.6 | 0.00 | 0.00 | 0.00 | 57 | 1010.5 |
| 20260507173103 | 54 | 245 | 2.6 | 8.7 | 0.00 | 0.00 | 0.00 | 58 | 1010.6 |
| 20260507171553 | 53 | 287 | 5.2 | 13.0 | 0.00 | 0.00 | 0.00 | 57 | 1010.6 |
| 20260507170053 | 53 | 318 | 4.3 | 10.4 | 0.00 | 0.00 | 0.00 | 55 | 1010.7 |
| 20260507164625 | 53 | 220 | 4.3 | 8.7 | 0.00 | 0.00 | 0.00 | 57 | 1010.7 |
| 20260507163053 | 53 | 269 | 2.6 | 11.3 | 0.00 | 0.00 | 0.00 | 60 | 1010.7 |
| 20260507161555 | 53 | 236 | 4.3 | 8.7 | 0.00 | 0.00 | 0.00 | 56 | 1010.8 |
| 20260507160046 | 53 | 252 | 4.3 | 9.6 | 0.00 | 0.00 | 0.00 | 56 | 1010.8 |
| 20260507154542 | 52 | 249 | 4.3 | 8.7 | 0.00 | 0.00 | 0.00 | 58 | 1010.9 |
| 20260507153042 | 51 | 288 | 2.6 | 10.4 | 0.00 | 0.00 | 0.00 | 61 | 1010.9 |
| 20260507151538 | 52 | 268 | 3.5 | 8.7 | 0.00 | 0.00 | 0.00 | 62 | 1011.0 |
| 20260507150038 | 51 | 282 | 1.7 | 8.7 | 0.00 | 0.00 | 0.00 | 64 | 1011.2 |
| 20260507144537 | 51 | 336 | 2.6 | 7.8 | 0.00 | 0.00 | 0.00 | 63 | 1011.1 |
| 20260507143037 | 51 | 298 | 3.5 | 7.8 | 0.00 | 0.00 | 0.00 | 61 | 1011.0 |
| 20260507141533 | 51 | 277 | 1.7 | 6.1 | 0.00 | 0.00 | 0.00 | 60 | 1011.2 |
| 20260507140030 | 50 | 5 | 0.9 | 6.1 | 0.00 | 0.00 | 0.00 | 60 | 1011.2 |
| 20260507134526 | 50 | 334 | 0.9 | 4.3 | 0.00 | 0.00 | 0.00 | 68 | 1011.5 |
| 20260507133026 | 49 | 304 | 1.7 | 7.8 | 0.00 | 0.00 | 0.00 | 70 | 1011.5 |
| 20260507131520 | 47 | 300 | 2.6 | 5.2 | 0.00 | 0.00 | 0.00 | 75 | 1011.7 |
| 20260507130017 | 47 | 308 | 1.7 | 7.0 | 0.00 | 0.00 | 0.00 | 79 | 1011.7 |
| 20260507124519 | 46 | 259 | 1.7 | 6.1 | 0.00 | 0.00 | 0.00 | 80 | 1011.7 |
| 20260507123014 | 46 | 274 | 0.9 | 6.1 | 0.00 | 0.00 | 0.00 | 81 | 1011.8 |
| 20260507121514 | 45 | 247 | 2.6 | 5.2 | 0.00 | 0.00 | 0.00 | 81 | 1011.5 |
| 20260507120009 | 45 | 223 | 0.0 | 5.2 | 0.00 | 0.01 | 0.00 | 82 | 1011.4 |
| 20260507114506 | 44 | 226 | 0.9 | 6.1 | 0.00 | 0.01 | 0.00 | 84 | 1011.6 |
| 20260507113015 | 43 | 277 | 0.9 | 4.3 | 0.00 | 0.01 | 0.00 | 85 | 1011.5 |
| 20260507111506 | 42 | 240 | 0.0 | 2.6 | 0.00 | 0.01 | 0.00 | 88 | 1011.4 |
| 20260507110007 | 41 | 240 | 0.0 | 0.0 | 0.00 | 0.01 | 0.00 | 90 | 1011.4 |
| 20260507104502 | 40 | 240 | 0.0 | 0.0 | 0.00 | 0.01 | 0.00 | 90 | 1011.2 |
| 20260507103001 | 41 | 240 | 0.0 | 0.0 | 0.00 | 0.01 | 0.00 | 87 | 1011.1 |
| 20260507101602 | 42 | 240 | 0.0 | 0.0 | 0.00 | 0.01 | 0.00 | 87 | 1010.9 |
| 20260507100120 | 42 | 240 | 0.0 | 0.0 | 0.00 | 0.01 | 0.00 | 86 | 1011.1 |
| 20260507094607 | 42 | 240 | 0.0 | 2.6 | 0.00 | 0.05 | 0.00 | 85 | 1011.0 |
| 20260507093057 | 42 | 236 | 0.0 | 2.6 | 0.00 | 0.05 | 0.00 | 86 | 1011.0 |
| 20260507091622 | 42 | 236 | 0.0 | 0.0 | 0.00 | 0.05 | 0.00 | 88 | 1011.1 |
| 20260507090055 | 42 | 236 | 0.0 | 0.0 | 0.00 | 0.05 | 0.00 | 87 | 1011.1 |